Wind_Speed
24 25 23 20 18 16 14 12 13 12 11 10 9 9 7 6 6 5 5 4 4 4 4 3 3 3 3 4 4 5 5 5 5
28 28 26 23 21 19 17 16 16 16 14 13 12 10 10 9 7 6 6 5 5 4 4 4 4 4 4 4 5 6 6 7 7
30 30 28 25 25 23 21 19 19 20 19 17 15 14 13 12 10 9 8 7 6 5 4 4 4 5 6 7 9 9 10 10 10
30 31 32 29 24 25 25 23 23 23 23 22 20 18 17 16 13 14 12 11 10 9 8 8 8 7 7 7 8 10 13 14 14
28 30 32 32 29 31 31 29 27 26 25 25 25 22 21 19 18 18 17 16 14 14 14 13 13 12 11 11 11 12 14 15 17
31 29 33 35 35 35 33 33 31 30 28 27 27 26 26 23 21 22 21 19 17 17 17 16 16 16 16 15 15 16 17 17 17
33 35 36 37 37 38 37 36 34 33 31 30 29 30 29 27 24 25 24 22 20 19 19 18 18 18 18 17 17 17 16 17 19
33 38 40 40 40 40 40 39 38 37 35 34 33 33 32 31 27 28 27 25 23 22 21 20 20 20 20 20 19 18 18 18 19
34 42 43 46 45 44 44 43 42 41 39 38 37 36 37 33 31 33 30 29 28 27 25 23 23 23 22 22 22 21 21 21 22
37 47 46 47 47 46 45 44 44 45 43 42 40 41 40 36 37 35 33 34 33 31 30 28 27 26 25 24 25 25 25 25 25
47 42 42 44 50 44 47 45 45 44 45 44 44 45 43 41 41 39 37 38 36 35 33 32 31 30 29 28 29 28 29 29 29
47 51 40 34 48 34 55 46 45 44 46 46 47 48 48 45 45 43 42 42 40 38 38 37 35 35 34 33 32 33 32 33 33
48 46 48 56 50 52 27 42 39 42 49 49 48 49 49 48 48 47 46 45 45 43 42 40 38 40 40 38 37 36 38 37 38
52 50 49 51 48 46 50 53 47 42 42 53 50 49 50 50 50 50 50 49 48 47 47 47 44 43 45 43 41 42 42 42 41
47 48 50 50 47 48 42 42 41 46 51 46 55 57 46 53 54 53 52 51 50 50 48 48 46 48 49 48 47 47 47 47 46
41 42 42 44 46 47 43 42 40 38 33 35 34 42 61 60 57 60 53 51 53 53 50 50 51 50 49 52 51 50 51 52 52
41 41 40 38 38 40 43 40 40 41 37 31 45 51 42 56 59 54 53 52 56 56 54 51 51 52 53 54 55 55 55 55 55
45 45 43 41 38 36 38 37 37 42 53 52 45 42 42 51 45 43 52 51 51 57 58 60 57 57 54 58 60 59 58 58 58
46 44 44 44 42 39 39 39 39 39 42 47 55 57 50 51 50 50 50 50 47 46 61 48 60 61 65 67 65 64 63 61 63
48 46 44 44 44 43 41 40 41 40 43 44 45 46 53 51 55 52 54 55 57 56 58 52 49 52 54 46 61 69 78 72 72
Wind_Direction
222 219 219 219 218 218 223 220 210 204 205 201 193 184 178 174 160 161 154 166 169 174 171 180 188 188 184 187 191 196 192 196 209
223 223 222 223 225 225 226 225 223 223 222 220 217 207 202 203 188 197 185 187 192 192 193 197 202 204 219 227 228 227 226 227 230
228 227 224 227 230 229 230 231 231 230 229 229 230 223 218 222 217 216 219 213 207 213 213 217 228 236 242 248 251 251 247 243 241
235 231 226 222 233 234 236 233 234 235 234 233 233 233 230 229 227 236 232 235 235 237 238 239 241 244 252 264 268 266 257 253 250
236 231 231 228 224 236 234 235 235 235 236 237 236 235 237 233 235 239 240 243 245 249 249 251 253 256 259 264 271 277 272 267 256
243 236 235 233 228 237 236 236 236 237 237 238 238 236 239 237 235 244 244 247 247 251 254 255 256 256 260 265 271 276 271 263 263
245 241 238 235 236 236 239 239 238 239 239 238 238 237 239 240 237 243 247 250 249 250 253 256 259 261 262 263 269 273 267 262 259
245 245 244 241 238 239 239 240 239 239 240 241 240 240 241 240 241 246 248 248 251 253 255 258 261 262 262 262 266 269 269 264 260
252 244 244 245 241 238 240 240 241 241 239 241 243 244 245 245 245 245 247 248 249 251 254 257 260 263 264 265 267 269 270 269 267
249 258 244 240 244 239 240 241 242 242 241 242 242 244 246 247 249 249 248 249 251 251 253 254 256 260 263 265 265 265 267 269 268
251 244 257 254 237 245 243 243 242 243 244 242 243 244 245 246 248 250 250 251 253 255 255 255 258 260 261 262 265 265 266 266 267
261 265 258 257 242 249 244 240 241 244 245 246 245 245 246 246 248 250 252 254 253 253 256 259 259 260 262 262 261 263 264 266 266
259 261 262 262 262 245 228 241 239 241 246 247 247 246 248 248 247 248 250 253 257 257 257 257 258 261 262 262 264 264 265 265 267
259 258 260 264 264 270 271 275 252 254 245 249 252 250 249 251 252 252 251 252 253 256 259 261 262 263 264 265 264 265 265 265 266
258 259 258 261 262 263 265 270 274 279 280 270 250 249 256 257 254 253 254 255 256 256 256 258 260 261 265 266 267 268 268 268 267
258 259 259 257 257 259 259 259 259 260 272 266 265 274 245 255 257 254 255 259 261 260 261 263 263 262 263 266 267 267 269 271 272
257 258 259 259 257 256 257 258 257 250 252 244 264 257 259 248 248 249 256 260 260 261 263 262 262 265 265 265 266 268 269 269 270
256 257 258 258 257 255 253 252 249 251 246 255 249 255 257 252 256 251 256 264 264 258 261 261 261 266 266 266 265 265 267 269 270
255 255 255 255 255 254 252 252 252 248 251 252 247 254 255 256 262 258 261 258 254 255 253 266 255 265 265 266 263 262 266 266 269
253 253 253 253 252 252 252 251 252 251 253 255 259 249 259 261 257 261 264 267 267 272 271 273 268 269 275 280 265 261 259 263 272
Height
5837 5839 5841 5842 5843 5845 5845 5846 5847 5848 5849 5849 5850 5850 5851 5852 5853 5853 5854 5854 5855 5856 5856 5857 5858 5858 5859 5860 5861 5861 5862 5863 5863
5835 5836 5838 5840 5841 5842 5844 5845 5846 5847 5848 5848 5848 5849 5850 5850 5852 5852 5853 5854 5855 5855 5856 5856 5857 5858 5859 5859 5860 5861 5861 5862 5862
5831 5833 5835 5837 5838 5839 5841 5842 5843 5845 5846 5846 5847 5848 5849 5849 5850 5851 5852 5853 5854 5854 5855 5856 5856 5857 5857 5857 5858 5859 5859 5860 5860
5827 5829 5831 5833 5835 5837 5838 5839 5840 5841 5843 5844 5845 5845 5846 5847 5849 5849 5850 5851 5852 5853 5854 5854 5855 5855 5856 5856 5857 5857 5857 5857 5858
5821 5824 5826 5828 5831 5832 5834 5835 5837 5838 5839 5840 5841 5842 5844 5845 5847 5847 5848 5849 5850 5851 5851 5852 5852 5853 5853 5854 5854 5855 5855 5855 5855
5817 5820 5821 5824 5826 5827 5828 5830 5832 5834 5835 5836 5838 5839 5839 5842 5844 5844 5845 5846 5848 5848 5848 5849 5849 5850 5850 5851 5851 5851 5851 5851 5852
5813 5813 5815 5818 5820 5821 5822 5824 5826 5829 5830 5831 5833 5834 5835 5837 5841 5840 5842 5843 5844 5844 5845 5846 5846 5846 5847 5847 5847 5847 5847 5847 5848
5807 5807 5810 5811 5813 5814 5816 5817 5819 5822 5824 5826 5827 5829 5831 5832 5835 5836 5837 5839 5840 5840 5841 5842 5842 5842 5843 5843 5843 5843 5843 5843 5843
5797 5799 5801 5804 5805 5806 5807 5809 5812 5814 5817 5819 5821 5823 5824 5828 5830 5829 5832 5833 5834 5835 5836 5837 5838 5838 5839 5839 5839 5839 5839 5839 5839
5788 5787 5789 5792 5795 5797 5798 5800 5802 5806 5809 5810 5813 5815 5818 5823 5823 5825 5826 5826 5828 5830 5831 5831 5832 5832 5833 5834 5834 5834 5834 5834 5833
5775 5775 5779 5781 5785 5788 5790 5791 5793 5797 5800 5803 5804 5806 5810 5813 5815 5818 5820 5820 5822 5824 5825 5826 5826 5827 5827 5827 5828 5828 5828 5827 5827
5765 5763 5764 5767 5775 5777 5780 5779 5784 5788 5791 5793 5795 5799 5801 5803 5806 5809 5812 5813 5815 5817 5818 5820 5821 5820 5820 5821 5821 5821 5821 5821 5821
5756 5759 5759 5759 5761 5768 5767 5773 5774 5776 5783 5783 5786 5790 5793 5795 5796 5799 5802 5804 5807 5810 5812 5813 5815 5814 5813 5814 5814 5814 5814 5813 5813
5745 5749 5750 5751 5754 5756 5757 5761 5766 5767 5771 5777 5777 5780 5783 5786 5788 5791 5792 5794 5797 5800 5803 5805 5807 5807 5805 5806 5807 5806 5805 5805 5804
5736 5738 5739 5741 5745 5747 5750 5753 5756 5759 5761 5765 5768 5773 5773 5775 5778 5780 5782 5784 5787 5790 5793 5796 5797 5797 5797 5798 5798 5798 5797 5796 5795
5725 5727 5729 5732 5735 5737 5741 5746 5748 5751 5750 5753 5756 5759 5762 5765 5766 5770 5773 5774 5775 5779 5784 5786 5786 5787 5787 5787 5787 5787 5787 5787 5786
5716 5717 5719 5720 5723 5726 5729 5733 5737 5739 5741 5739 5745 5747 5751 5752 5755 5756 5759 5762 5763 5766 5772 5774 5775 5775 5776 5775 5775 5775 5775 5775 5775
5705 5707 5709 5711 5713 5716 5718 5722 5725 5729 5731 5733 5736 5735 5739 5741 5743 5746 5749 5750 5752 5753 5756 5761 5761 5764 5764 5764 5763 5762 5763 5763 5763
5694 5695 5698 5701 5704 5707 5709 5712 5715 5718 5719 5720 5725 5727 5729 5730 5732 5734 5737 5738 5739 5741 5744 5747 5748 5751 5751 5750 5750 5749 5749 5748 5748
5682 5684 5686 5690 5693 5696 5699 5702 5704 5707 5709 5711 5713 5716 5718 5719 5721 5724 5725 5726 5727 5729 5732 5733 5737 5738 5737 5733 5736 5736 5735 5735 5735